Weather in Birkirkara

Malta     35°52′43″N   14°28′12″E
temp.,
°C
wind,
m/s
gust,
m/s
humid.,
%
clouds,
%
prec.,
mm/h
press.,
hPa
HPBL,
m
9 december, thu
thu901:00+17sw1114640 0.0 10111143
04:00+17sw1114640 0.0 10091045
07:00+16wnw9106844 0.0 10101273
10:00+15wnw11117298 0.4 10111141
13:00+16w12135692 0.4 10101708
16:00+15w111357100 0.1 10111755
19:00+15w12155891 0.2 10121947
22:00+14wnw12136184 0.7 10141694
10 december, fri
fri1001:00+12nw12147390 1.8 10151224
04:00+14w1113565 0.6 10141853
07:00+14w11136289 0.6 10141549
10:00+15w10126447 0.3 10151438
13:00+16wsw131465100 0.7 10131543
16:00+16wsw131469100 0.0 10111289
19:00+17wsw141770100 0.1 10101416
22:00+17sw162073100 0.1 10091386
11 december, sat
sat1101:00+17wsw162277100 0.6 10072003
04:00+14wnw7875100 0.9 1006709
07:00+14wnw121687100 6.6 10051342
10:00+14wnw12157480 2.4 10061348
13:00+14wnw18216823 2.8 10061635
16:00+14wnw1821645 0.3 10061837
19:00+14wnw16196626 1.0 10081845
22:00+15wnw172060100 0.8 10102037
12 december, sun
sun1201:00+15wnw15176597 0.9 10111737
04:00+15nw14146388 0.1 10121725
07:00+14nw111265100 0.1 10151565
10:00+15nw10115748 0.1 10171791
13:00+15nw8956100 0.1 10171848
16:00+15nnw89565 0.0 10181415
19:00+15nnw885482 0.1 10211645
22:00+14nnw910570 0.0 10221144
13 december, mon
mon1301:00+14nnw77571 0.0 10221119
04:00+14nnw77585 0.0 10221417
07:00+14nnw67571 0.0 10231192
10:00+14nnw88583 0.0 10241427
13:00+14nnw78553 0.0 10231369
16:00+14nnw77581 0.0 10231230
19:00+14nw77611 0.0 10241233
22:00+14nw66641 0.0 10241050